Probability
0 0 0 0 0 0 0 0 0 0 0 0 0 0 0 0 0 0 0 0 0 3 3 3 3 3 3 3 3 3 3 3 3 3 3 3 3 3 3 6 6 10 10
0 0 0 0 0 0 0 0 0 0 0 0 0 0 0 0 0 0 0 0 0 0 3 3 3 0 3 3 0 3 3 3 3 3 3 3 3 3 3 3 3 6 6
0 0 0 0 0 0 0 0 0 0 0 0 0 0 0 0 0 0 0 0 0 0 0 3 3 0 0 0 3 3 3 3 3 3 3 3 3 3 3 3 3 3 6
0 0 0 0 0 0 0 0 0 0 0 0 0 0 0 0 0 0 0 0 0 0 0 0 0 0 0 0 3 3 3 3 3 3 3 3 3 3 3 3 3 0 0
0 0 0 0 0 0 0 0 0 0 0 0 0 0 0 0 0 0 0 0 0 0 0 0 0 0 0 0 0 3 3 3 3 3 3 3 3 3 3 3 3 0 0
0 0 0 0 0 0 0 0 0 0 0 0 0 0 0 0 0 0 0 0 0 0 0 0 0 0 0 0 0 0 0 3 3 3 3 3 3 3 3 3 3 0 0
0 0 0 0 0 0 0 0 0 0 0 0 0 0 0 0 0 0 0 0 0 0 0 0 0 0 0 0 0 0 0 3 3 3 3 3 3 3 3 3 3 3 0
0 0 0 0 0 0 0 0 0 0 0 0 0 0 0 0 0 0 0 0 0 0 0 0 0 0 0 0 0 0 0 0 0 0 3 3 3 3 3 3 0 0 0
0 0 0 0 0 0 0 0 0 0 0 0 0 0 0 0 0 0 0 0 0 0 0 0 0 0 0 0 0 0 0 0 0 0 0 3 3 3 3 0 0 0 0
0 0 0 0 0 0 0 0 0 0 0 0 0 0 0 0 0 0 0 0 0 0 0 0 0 0 0 0 0 0 0 0 0 0 0 0 3 3 3 0 0 0 0
0 0 0 0 0 0 0 0 0 0 0 0 0 0 0 0 0 0 0 0 0 0 0 0 0 0 0 0 0 0 0 0 0 0 0 0 0 0 0 0 0 0 0
0 0 0 0 0 0 0 0 0 0 0 0 0 0 0 0 0 0 0 0 0 0 0 0 0 0 0 0 0 0 0 0 0 0 0 0 0 0 0 0 0 0 0
0 0 0 0 0 0 0 0 0 0 0 0 0 0 0 0 0 0 0 0 0 0 0 0 0 0 0 0 0 0 0 0 0 0 0 0 0 0 0 0 0 0 0
0 0 0 0 0 0 0 0 0 0 0 0 0 0 0 0 0 0 0 0 0 0 0 0 0 0 0 0 0 0 0 0 0 0 0 0 0 0 0 0 0 0 0
0 0 0 0 0 0 0 0 0 0 0 0 0 0 0 0 0 0 0 0 0 0 0 0 0 0 0 0 0 0 0 0 0 0 0 0 0 0 0 0 0 0 0
0 0 0 0 0 0 0 0 0 0 0 0 0 0 0 0 0 0 0 0 0 0 0 0 0 0 0 0 0 0 0 0 0 0 0 0 0 0 0 0 0 0 0
0 0 0 0 0 0 0 0 0 0 0 0 0 0 0 0 0 0 0 0 0 0 0 0 0 0 0 0 0 0 0 0 0 0 0 0 0 0 0 0 0 0 0
0 0 0 0 0 0 0 0 0 0 0 0 0 0 0 0 0 0 0 0 0 0 0 0 0 0 0 0 0 0 0 0 0 0 0 0 0 0 0 0 0 0 0
0 0 0 0 0 0 0 0 0 0 0 0 0 0 0 0 0 0 0 0 0 0 0 0 0 0 0 0 0 0 0 0 0 0 0 0 0 0 0 0 0 0 0
0 0 0 0 0 0 0 0 0 0 0 0 0 0 0 0 0 0 0 0 0 0 0 0 0 0 0 0 0 0 0 0 0 0 0 0 0 0 0 0 0 0 0
0 0 0 0 0 0 0 0 0 0 0 0 0 0 0 0 0 0 0 0 0 0 0 0 0 0 0 0 0 0 0 0 0 0 0 0 0 0 0 0 0 0 0
0 0 0 0 0 0 0 0 0 0 0 0 0 0 0 0 0 0 0 0 0 0 0 0 0 0 0 0 0 0 0 0 0 0 0 0 0 0 0 0 0 0 0
0 0 0 0 0 0 0 0 0 0 0 0 0 0 0 0 0 0 0 0 0 0 0 0 0 0 0 0 0 0 0 0 0 0 0 0 0 0 0 0 0 0 0
0 0 0 0 0 0 0 0 0 0 0 0 0 0 0 0 0 0 0 0 0 0 0 0 0 0 0 0 0 0 0 0 0 0 0 0 0 0 0 0 0 0 0
0 0 0 0 0 0 0 0 0 0 0 0 0 0 0 0 0 0 0 0 0 0 0 0 0 0 0 0 0 0 0 0 0 0 0 0 0 0 0 0 0 0 0
0 0 0 0 0 0 0 0 0 0 0 0 0 0 0 0 0 0 0 0 0 0 0 0 0 0 0 0 0 0 0 0 0 0 0 0 0 0 0 0 0 0 0
Height
5767 5769 5771 5773 5775 5777 5779 5781 5783 5785 5787 5789 5790 5792 5794 5796 5798 5800 5802 5804 5806 5807 5808 5810 5811 5812 5814 5815 5816 5817 5819 5820 5821 5822 5823 5824 5825 5826 5827 5828 5828 5829 5829
5758 5761 5763 5765 5767 5769 5771 5773 5775 5777 5779 5781 5783 5785 5787 5789 5791 5793 5795 5797 5798 5800 5802 5803 5804 5806 5807 5808 5810 5811 5812 5813 5815 5816 5817 5818 5819 5820 5820 5821 5822 5823 5823
5749 5752 5754 5756 5758 5760 5763 5765 5767 5769 5771 5773 5775 5777 5779 5781 5783 5785 5787 5789 5791 5792 5794 5796 5797 5799 5800 5801 5803 5804 5805 5807 5808 5809 5810 5811 5812 5813 5813 5814 5815 5816 5816
5740 5742 5744 5747 5749 5751 5754 5756 5758 5761 5763 5765 5767 5769 5771 5773 5775 5777 5778 5780 5782 5784 5786 5787 5789 5790 5792 5793 5795 5796 5798 5799 5800 5801 5802 5803 5804 5805 5806 5807 5807 5808 5809
5730 5732 5734 5736 5739 5741 5744 5746 5749 5751 5753 5755 5757 5759 5761 5764 5766 5768 5770 5771 5773 5775 5777 5778 5780 5782 5783 5785 5786 5788 5789 5790 5791 5792 5793 5794 5795 5796 5797 5798 5799 5800 5800
5719 5721 5723 5726 5728 5731 5733 5735 5738 5740 5743 5745 5747 5749 5752 5754 5756 5758 5760 5762 5763 5765 5767 5769 5771 5772 5774 5775 5777 5778 5779 5781 5782 5783 5784 5785 5786 5787 5788 5789 5790 5791 5792
5708 5710 5712 5715 5717 5720 5722 5724 5726 5729 5731 5734 5736 5738 5740 5743 5745 5747 5749 5751 5753 5755 5757 5759 5761 5762 5764 5765 5767 5768 5769 5770 5772 5773 5774 5775 5776 5778 5779 5779 5780 5781 5782
5696 5699 5701 5703 5706 5708 5711 5713 5715 5717 5719 5721 5724 5726 5728 5732 5734 5736 5738 5740 5742 5744 5746 5748 5750 5751 5753 5754 5756 5757 5758 5760 5761 5762 5763 5765 5766 5767 5768 5769 5770 5771 5772
5684 5686 5689 5692 5694 5696 5699 5701 5703 5705 5707 5708 5710 5713 5715 5718 5721 5723 5725 5728 5730 5732 5734 5736 5738 5740 5741 5743 5744 5746 5747 5748 5749 5750 5752 5753 5754 5756 5757 5758 5759 5760 5761
5671 5674 5677 5679 5682 5684 5686 5688 5690 5692 5694 5695 5697 5699 5702 5704 5707 5710 5713 5715 5717 5719 5721 5723 5725 5727 5729 5730 5732 5733 5734 5736 5737 5738 5739 5741 5742 5743 5744 5746 5747 5748 5749
5659 5662 5664 5667 5669 5672 5674 5676 5677 5679 5681 5682 5684 5686 5688 5690 5692 5696 5700 5702 5704 5706 5708 5710 5712 5714 5715 5716 5718 5719 5721 5722 5723 5725 5726 5727 5729 5730 5731 5733 5734 5735 5736
5647 5649 5652 5654 5657 5659 5661 5663 5664 5666 5668 5669 5671 5673 5674 5676 5678 5681 5684 5687 5690 5693 5694 5696 5698 5700 5701 5702 5704 5705 5707 5708 5709 5710 5712 5713 5715 5716 5718 5719 5720 5722 5723
5634 5637 5639 5641 5644 5646 5648 5649 5651 5653 5654 5656 5657 5659 5660 5662 5664 5667 5669 5672 5675 5678 5680 5682 5683 5685 5687 5688 5690 5691 5692 5693 5694 5695 5697 5698 5700 5701 5703 5704 5706 5707 5708
5621 5624 5626 5628 5630 5632 5634 5636 5638 5639 5641 5642 5643 5645 5646 5648 5650 5652 5655 5657 5660 5663 5665 5668 5669 5670 5672 5673 5674 5676 5677 5678 5679 5680 5681 5682 5684 5686 5687 5689 5690 5692 5693
5608 5610 5612 5614 5617 5619 5620 5622 5623 5625 5627 5628 5629 5631 5633 5635 5637 5638 5640 5642 5646 5648 5651 5653 5654 5655 5656 5658 5659 5660 5662 5663 5664 5665 5665 5666 5667 5669 5671 5673 5674 5676 5677
5593 5596 5598 5600 5603 5605 5606 5608 5609 5611 5613 5614 5616 5618 5619 5621 5623 5624 5626 5627 5630 5632 5635 5638 5639 5640 5641 5642 5644 5645 5646 5647 5648 5649 5649 5650 5650 5652 5653 5655 5657 5659 5660
5579 5581 5584 5587 5589 5590 5592 5594 5596 5597 5599 5601 5602 5604 5605 5607 5608 5610 5611 5613 5615 5617 5619 5622 5623 5624 5626 5627 5628 5629 5630 5631 5632 5632 5632 5633 5634 5634 5636 5638 5640 5641 5643
5566 5568 5570 5572 5574 5576 5578 5580 5582 5583 5585 5587 5588 5590 5591 5592 5594 5595 5597 5598 5600 5601 5604 5606 5607 5608 5610 5612 5613 5614 5614 5615 5616 5616 5616 5616 5617 5618 5619 5621 5623 5624 5625
5552 5554 5556 5558 5560 5562 5564 5566 5568 5569 5571 5572 5574 5575 5576 5577 5579 5580 5582 5583 5585 5586 5588 5590 5592 5593 5595 5596 5597 5598 5598 5599 5600 5600 5600 5600 5601 5602 5603 5604 5605 5607 5608
5538 5540 5542 5544 5546 5547 5549 5551 5553 5555 5557 5558 5559 5560 5562 5563 5564 5565 5566 5568 5569 5571 5572 5574 5576 5578 5579 5580 5581 5582 5583 5583 5584 5584 5584 5585 5585 5586 5587 5588 5590 5590 5590
5523 5525 5527 5529 5531 5533 5535 5537 5539 5541 5542 5543 5544 5545 5546 5547 5548 5550 5551 5553 5554 5555 5557 5558 5560 5562 5563 5564 5566 5566 5567 5568 5568 5568 5569 5570 5570 5571 5571 5571 5571 5572 5572
5509 5510 5512 5515 5516 5518 5520 5522 5524 5525 5527 5528 5529 5530 5531 5532 5533 5534 5535 5537 5538 5540 5541 5543 5544 5546 5548 5549 5549 5550 5551 5552 5553 5554 5553 5554 5554 5554 5555 5555 5555 5555 5555
5494 5496 5497 5499 5501 5503 5504 5506 5508 5509 5511 5512 5513 5514 5515 5516 5517 5518 5520 5521 5522 5524 5526 5527 5529 5530 5532 5533 5534 5534 5535 5535 5537 5538 5537 5539 5538 5538 5538 5538 5538 5538 5538
5479 5480 5482 5484 5486 5487 5488 5490 5491 5493 5494 5495 5497 5498 5499 5500 5501 5502 5504 5505 5507 5509 5510 5511 5513 5515 5516 5517 5518 5518 5519 5520 5521 5522 5521 5523 5523 5523 5523 5522 5522 5522 5522
5465 5466 5467 5469 5470 5472 5473 5474 5475 5476 5478 5480 5481 5482 5483 5484 5485 5486 5488 5490 5492 5493 5494 5495 5497 5498 5500 5501 5502 5503 5504 5504 5506 5507 5507 5507 5507 5507 5508 5508 5507 5507 5506
5450 5451 5453 5454 5455 5456 5457 5458 5459 5460 5462 5464 5465 5466 5468 5469 5470 5470 5472 5474 5477 5478 5479 5480 5482 5483 5484 5485 5486 5488 5489 5490 5492 5493 5493 5492 5492 5492 5494 5494 5493 5492 5492
Wind_Speed
35 35 34 33 33 33 33 33 32 31 31 31 31 30 30 31 31 31 31 31 31 30 30 30 30 29 29 29 29 28 27 28 28 28 28 28 28 29 28 28 27 27 26
38 38 37 36 36 35 35 35 35 34 34 33 33 33 32 32 32 33 33 34 34 33 33 32 32 32 32 31 31 31 30 30 30 30 31 31 30 30 30 30 29 29 29
40 40 39 39 39 38 38 37 37 37 37 36 36 35 35 34 35 35 35 36 36 36 36 36 35 35 35 34 33 32 32 32 32 32 32 33 33 33 32 32 32 32 31
42 42 42 41 41 41 40 40 40 39 39 39 39 38 38 37 37 37 37 37 37 38 39 39 38 38 38 38 36 36 36 35 35 35 35 34 35 35 35 34 34 34 34
43 43 43 43 43 43 43 42 42 42 42 41 41 41 40 40 39 39 39 39 39 40 40 41 40 40 40 41 40 39 39 39 38 38 37 37 37 37 37 37 37 36 36
44 45 45 45 45 45 45 45 45 45 45 44 44 44 43 43 43 42 42 41 41 41 41 42 42 42 42 42 42 42 41 41 41 41 40 40 40 39 39 39 39 38 38
47 47 47 47 46 46 46 47 47 47 47 47 47 47 47 46 46 45 44 44 44 43 43 43 43 43 44 44 44 44 44 44 43 43 42 42 42 42 42 41 41 41 41
48 48 48 48 47 48 47 48 48 48 48 48 49 49 49 49 48 48 47 46 46 46 46 45 45 45 45 45 45 46 46 46 45 45 44 45 44 44 44 44 43 43 43
48 48 49 48 47 48 48 48 49 49 49 49 50 50 50 50 50 50 49 49 48 48 48 48 48 47 47 47 47 47 47 47 47 47 47 47 46 46 46 46 46 45 45
49 49 49 49 49 49 49 49 50 50 50 50 50 50 51 51 51 51 50 50 50 50 50 50 50 50 50 50 50 50 50 50 50 49 49 49 49 49 48 48 47 47 47
50 50 50 50 50 50 50 51 51 51 52 51 51 51 51 52 52 51 51 51 52 52 52 52 51 52 52 52 52 52 52 51 51 52 52 52 51 51 51 51 50 50 50
50 49 50 51 51 51 51 52 52 52 52 51 51 52 52 52 52 52 52 53 53 53 53 54 53 53 54 54 53 53 53 53 53 53 54 54 53 53 53 53 52 52 52
50 50 50 52 51 50 51 51 52 52 52 52 51 52 52 52 52 52 53 53 53 53 53 54 54 55 55 55 54 54 54 55 55 55 55 55 55 55 54 54 54 54 54
51 51 51 53 52 52 52 52 52 52 52 51 51 52 52 51 51 52 52 52 53 54 54 54 54 55 55 55 55 55 55 55 56 56 56 56 56 56 56 56 56 56 56
51 52 52 53 53 53 52 52 52 52 52 52 51 51 50 50 51 51 51 52 53 53 54 54 54 55 55 55 55 56 56 55 56 56 56 57 57 58 58 58 58 58 58
50 51 51 52 52 52 52 51 51 50 51 51 51 51 51 51 52 52 51 52 53 54 54 54 54 55 55 55 55 55 55 56 56 57 57 58 58 59 59 59 59 59 59
50 51 51 52 52 52 51 50 50 50 50 50 51 51 51 52 52 52 52 53 53 53 54 54 55 55 55 55 55 55 55 56 57 57 57 58 58 59 59 59 59 59 60
50 51 51 51 51 51 52 51 51 51 50 50 51 51 51 52 53 53 53 54 54 54 54 54 54 54 54 55 55 55 55 56 57 57 58 58 58 58 59 59 59 60 60
50 50 49 49 50 51 51 51 51 51 52 52 52 52 52 52 53 54 54 54 54 54 54 55 55 55 55 56 56 56 56 56 56 57 57 57 57 58 59 60 60 60 60
49 49 50 49 50 51 51 51 52 51 51 52 52 52 53 53 53 54 54 54 55 55 54 54 55 55 55 56 56 56 56 56 56 57 57 57 57 58 59 60 60 60 60
49 49 50 50 50 51 52 52 52 52 51 52 53 53 53 53 54 54 54 54 55 55 55 55 54 55 55 56 56 56 56 57 57 57 57 56 57 58 58 59 59 60 60
48 49 50 50 51 51 52 52 52 52 52 53 53 54 53 53 54 54 54 54 54 54 54 54 54 54 54 55 56 56 56 56 56 56 56 56 57 57 57 57 57 58 59
48 49 50 51 51 52 52 53 53 53 53 53 53 53 54 54 54 54 54 54 53 53 53 53 53 53 54 54 55 54 55 55 55 55 56 56 57 56 56 56 56 57 57
47 48 49 50 51 52 52 52 53 53 53 52 52 52 53 53 54 54 54 54 53 54 53 53 53 53 54 53 53 53 53 53 53 53 54 54 55 55 55 55 55 55 55
48 48 48 49 50 50 51 51 52 52 51 51 52 52 52 53 54 54 54 53 52 52 53 53 52 53 52 52 52 51 51 51 51 51 51 52 52 52 52 52 52 52 53
48 48 48 48 49 50 50 50 51 51 51 51 51 51 51 51 52 52 52 52 52 51 51 52 51 51 51 51 50 49 48 49 50 49 50 50 50 51 50 50 50 50 50
Wind_Direction
250 251 251 251 251 252 251 251 250 250 250 251 251 251 251 251 251 251 251 251 252 253 253 254 254 254 253 253 254 255 257 258 259 260 261 262 263 264 264 264 266 267 267
251 252 252 252 252 252 252 252 252 252 252 253 253 253 253 253 252 252 252 252 253 254 254 254 254 255 255 255 256 258 259 260 261 261 261 262 263 264 265 265 266 267 268
252 252 252 251 252 252 252 252 253 253 253 253 253 253 253 254 253 253 254 253 253 253 254 254 255 256 257 257 258 258 259 260 261 263 263 263 263 263 264 265 266 267 269
252 252 251 252 252 252 252 253 253 253 253 253 253 253 254 254 254 255 255 254 253 253 254 255 256 256 257 258 259 259 260 261 262 263 264 265 264 264 264 264 266 267 268
252 252 252 251 252 253 253 253 254 253 253 254 254 254 254 254 255 256 256 257 256 254 254 255 256 257 257 259 259 260 260 261 262 263 264 265 265 265 264 265 266 267 268
252 253 253 252 253 253 254 253 254 254 254 255 255 255 255 255 256 256 256 257 257 256 255 256 256 257 257 259 260 260 260 261 262 263 264 264 265 265 266 266 266 267 267
253 253 253 254 254 254 255 255 255 255 255 255 256 257 256 256 256 257 257 257 257 257 257 257 258 258 258 259 260 260 261 262 262 263 264 264 264 264 266 266 267 267 267
254 253 253 254 254 255 256 257 257 257 256 257 257 257 257 256 256 257 257 258 258 258 258 258 259 260 260 260 261 261 262 262 262 263 264 264 264 265 265 266 267 267 267
254 254 254 253 254 255 256 257 258 258 258 258 258 258 257 257 257 257 257 258 258 259 259 259 259 260 261 261 261 262 263 263 264 264 264 264 264 265 266 266 266 266 266
254 254 254 254 255 256 257 257 258 258 259 260 259 258 258 258 257 257 257 258 259 259 259 259 260 260 261 262 262 262 263 263 263 264 264 264 264 265 266 266 266 266 267
254 254 255 254 255 256 257 258 258 259 259 259 259 260 260 260 259 258 257 258 259 260 260 260 260 262 262 262 262 262 263 263 263 263 264 264 265 265 266 266 266 266 267
253 254 255 255 255 257 258 259 259 259 259 259 260 261 261 261 260 258 259 259 260 260 261 261 262 263 263 263 262 262 263 263 264 263 263 264 264 265 266 266 266 266 267
253 254 255 255 255 256 257 259 259 259 260 260 261 261 261 261 260 259 260 260 260 261 261 262 263 263 264 263 263 263 263 263 263 264 264 264 264 265 265 266 266 266 266
254 254 255 255 255 257 258 258 259 260 261 261 261 261 261 260 260 260 261 260 260 260 261 262 262 263 264 263 263 264 264 264 264 264 265 265 264 264 265 265 265 266 266
255 255 256 256 256 257 258 259 259 260 260 260 261 260 259 260 262 262 261 261 261 261 261 262 263 263 264 264 264 264 264 264 265 265 266 266 265 265 264 265 265 266 266
256 256 256 256 256 257 257 258 259 260 260 259 259 259 259 261 262 262 262 261 262 262 262 262 262 263 264 263 264 264 264 265 266 266 267 266 266 265 264 264 265 266 266
256 256 256 256 256 257 257 258 258 258 259 259 260 261 262 261 262 261 261 262 262 263 263 263 263 263 263 264 264 265 266 266 267 267 267 267 266 265 264 264 265 266 267
257 257 257 257 257 259 259 259 258 258 259 260 261 262 262 262 262 262 262 263 263 264 264 263 263 263 263 264 265 266 266 267 267 268 268 267 267 266 265 265 265 266 267
258 258 257 258 258 259 260 260 260 260 260 261 262 263 263 263 263 264 263 263 264 264 264 263 263 263 264 265 265 266 267 267 267 268 268 267 267 267 266 266 266 267 268
258 258 258 258 259 259 259 259 260 261 262 262 262 263 263 264 264 265 264 264 265 264 264 263 263 263 264 265 266 267 268 268 268 267 267 267 267 267 268 268 267 268 268
259 258 259 258 259 260 259 260 261 262 262 263 263 263 264 265 265 265 265 265 265 264 264 263 263 263 264 265 266 267 268 268 268 267 266 267 267 268 269 269 269 269 268
260 259 259 258 259 260 260 260 261 262 263 263 263 263 264 265 264 265 266 266 265 264 264 263 263 264 264 265 266 266 268 268 268 268 267 267 269 269 270 269 269 269 269
262 262 260 259 259 261 261 261 262 263 263 263 263 263 264 264 264 264 265 264 264 264 264 264 264 264 265 266 266 267 267 269 269 269 268 269 270 270 270 270 270 270 270
263 263 262 261 261 261 262 262 263 263 263 262 262 262 263 263 264 264 264 263 263 263 263 263 264 265 266 266 266 267 267 268 269 269 270 270 270 270 270 269 270 270 270
263 264 264 263 263 262 263 263 263 263 263 262 262 263 263 263 263 263 263 263 263 263 263 264 264 264 265 265 265 266 267 267 268 269 270 270 270 270 269 269 270 270 271
264 265 265 265 264 263 263 263 263 263 263 263 262 263 263 262 262 262 262 262 262 262 263 264 264 264 264 264 264 265 266 267 268 270 270 270 270 270 269 269 269 270 271